Location: ??????
(55.4348°N, 39.2112°E)
Time: 09:05:26
(UTC+00:00)

Meteor 2-4 Rocket - Pass Details

Date: 14 April 2024
Orbit: 799 x 907 km, 81.2° (Epoch: 20 May)

Event Time Altitude Azimuth Distance (km) Brightness Sun altitude
Rises 01:18:52 0° 190° (S) 3,312 6.4 -8.8°
Reaches altitude 10° 01:21:13 10° 190° (S) 2,394 5.7 -8.5°
Maximum altitude 01:26:38 85° 103° (ESE) 836 3.8 -7.9°
Drops below altitude 10° 01:32:14 10° 15° (NNE) 2,473 6.8 -7.2°
Sets 01:34:42 0° 15° (NNE) 3,429 7.6 -6.8°
